| time (UTC) | temp C | wind direction | speed KPH | gust KPH | rain 1hr cm | rain 24hr cm | rain mn cm | humidity % | barometer mb |
| 20260504081549 | 26 | 38 | 17.7 | 27.4 | 0.00 | 0.00 | 0.00 | 86 | 1012.6 |
| 20260504050023 | 26 | 47 | 20.9 | 30.6 | 0.00 | 0.00 | 0.00 | 82 | 1014.7 |
| 20260504044524 | 26 | 43 | 17.7 | 27.4 | 0.00 | 0.00 | 0.00 | 82 | 1014.7 |
| 20260504043019 | 26 | 28 | 14.5 | 25.7 | 0.00 | 0.00 | 0.00 | 82 | 1014.9 |
| 20260504041534 | 26 | 20 | 16.1 | 25.7 | 0.00 | 0.00 | 0.00 | 82 | 1014.8 |
| 20260504040021 | 26 | 340 | 16.1 | 25.7 | 0.00 | 0.00 | 0.00 | 83 | 1014.8 |
| 20260504034515 | 26 | 28 | 12.9 | 24.1 | 0.00 | 0.00 | 0.00 | 82 | 1014.8 |
| 20260504033014 | 26 | 9 | 14.5 | 24.1 | 0.00 | 0.00 | 0.00 | 82 | 1014.7 |
| 20260504031512 | 27 | 9 | 12.9 | 24.1 | 0.00 | 0.00 | 0.00 | 82 | 1014.5 |
| 20260504030011 | 27 | 5 | 14.5 | 20.9 | 0.00 | 0.00 | 0.00 | 82 | 1014.4 |
| 20260504024511 | 27 | 13 | 11.3 | 24.1 | 0.00 | 0.00 | 0.00 | 81 | 1014.7 |
| 20260504023010 | 27 | 14 | 12.9 | 25.7 | 0.00 | 0.00 | 0.00 | 81 | 1014.3 |
| 20260504021509 | 27 | 34 | 11.3 | 29.0 | 0.00 | 0.00 | 0.00 | 81 | 1014.3 |
| 20260504020010 | 27 | 342 | 16.1 | 24.1 | 0.00 | 0.00 | 0.00 | 80 | 1014.1 |
| 20260504014511 | 27 | 24 | 19.3 | 27.4 | 0.00 | 0.00 | 0.00 | 80 | 1014.0 |
| 20260504013007 | 27 | 34 | 20.9 | 30.6 | 0.00 | 0.00 | 0.00 | 80 | 1014.0 |
| 20260504011506 | 27 | 30 | 17.7 | 29.0 | 0.00 | 0.00 | 0.00 | 80 | 1013.6 |
| 20260504010010 | 27 | 41 | 24.1 | 33.8 | 0.00 | 0.00 | 0.00 | 80 | 1013.4 |
| 20260504004510 | 28 | 45 | 19.3 | 29.0 | 0.00 | 0.00 | 0.00 | 79 | 1013.1 |
| 20260504003003 | 28 | 328 | 12.9 | 24.1 | 0.00 | 0.00 | 0.00 | 79 | 1012.8 |
| 20260504001506 | 28 | 326 | 17.7 | 27.4 | 0.00 | 0.00 | 0.00 | 79 | 1012.8 |
| 20260504000002 | 28 | 355 | 16.1 | 22.5 | 0.00 | 0.00 | 0.00 | 78 | 1012.4 |
| 20260503234502 | 28 | 5 | 14.5 | 27.4 | 0.00 | 0.00 | 0.00 | 77 | 1012.4 |
| 20260503233001 | 28 | 17 | 17.7 | 27.4 | 0.00 | 0.00 | 0.00 | 77 | 1012.1 |
| 20260503230105 | 29 | 5 | 14.5 | 25.7 | 0.00 | 0.00 | 0.00 | 76 | 1011.9 |
| 20260503224609 | 30 | 36 | 16.1 | 29.0 | 0.00 | 0.00 | 0.00 | 76 | 1011.9 |
| 20260503223058 | 30 | 38 | 12.9 | 25.7 | 0.00 | 0.00 | 0.00 | 76 | 1011.8 |
| 20260503221606 | 30 | 355 | 16.1 | 25.7 | 0.00 | 0.00 | 0.00 | 75 | 1011.5 |
| 20260503220057 | 30 | 350 | 11.3 | 24.1 | 0.00 | 0.00 | 0.00 | 74 | 1011.3 |
| 20260503214556 | 31 | 23 | 14.5 | 22.5 | 0.00 | 0.00 | 0.00 | 73 | 1011.4 |
| 20260503213057 | 31 | 350 | 17.7 | 24.1 | 0.00 | 0.00 | 0.00 | 71 | 1011.4 |
| 20260503211556 | 31 | 342 | 11.3 | 19.3 | 0.00 | 0.00 | 0.00 | 69 | 1011.6 |
| 20260503210055 | 32 | 22 | 9.7 | 22.5 | 0.00 | 0.00 | 0.00 | 69 | 1011.9 |
| 20260503204616 | 32 | 355 | 11.3 | 22.5 | 0.00 | 0.00 | 0.00 | 66 | 1011.8 |
| 20260503203057 | 32 | 36 | 12.9 | 19.3 | 0.00 | 0.00 | 0.00 | 65 | 1012.2 |
| 20260503201551 | 32 | 360 | 11.3 | 22.5 | 0.00 | 0.00 | 0.00 | 66 | 1012.4 |
| 20260503200050 | 32 | 37 | 14.5 | 24.1 | 0.00 | 0.00 | 0.00 | 65 | 1012.5 |
| 20260503194548 | 33 | 19 | 14.5 | 24.1 | 0.00 | 0.00 | 0.00 | 65 | 1012.7 |
| 20260503193048 | 33 | 355 | 9.7 | 25.7 | 0.00 | 0.00 | 0.00 | 65 | 1012.9 |
| 20260503191605 | 32 | 19 | 16.1 | 25.7 | 0.00 | 0.00 | 0.00 | 65 | 1013.0 |
| 20260503190039 | 32 | 338 | 9.7 | 24.1 | 0.00 | 0.00 | 0.00 | 66 | 1013.1 |
| 20260503184538 | 32 | 350 | 12.9 | 24.1 | 0.00 | 0.00 | 0.00 | 66 | 1013.5 |
| 20260503183037 | 32 | 46 | 14.5 | 27.4 | 0.00 | 0.00 | 0.00 | 67 | 1013.6 |
| 20260503181545 | 32 | 314 | 8.0 | 25.7 | 0.00 | 0.00 | 0.00 | 68 | 1013.6 |
| 20260503180036 | 32 | 346 | 11.3 | 25.7 | 0.00 | 0.00 | 0.00 | 68 | 1013.9 |
| 20260503174534 | 31 | 5 | 14.5 | 25.7 | 0.00 | 0.00 | 0.00 | 70 | 1013.9 |
| 20260503173030 | 31 | 9 | 17.7 | 25.7 | 0.00 | 0.00 | 0.00 | 71 | 1014.1 |
| 20260503171527 | 31 | 277 | 14.5 | 27.4 | 0.00 | 0.00 | 0.00 | 71 | 1014.4 |